Goodland, KS

10:12 AM MDT on July 22, 2017 (GMT -0600)
Renner-Goodland Municipal

Weather History for KGLD - April, 2014

Change the Weather History Date:

Friday, April 25, 2014

  Actual Average Record
Temperature  
Mean Temperature 56 °F 52 °F  
Max Temperature 78 °F 67 °F 88 °F (1981)
Min Temperature 33 °F 38 °F 22 °F (2002)
Degree Days  
Heating Degree Days 9 13  
Month to date heating degree days 362 419  
Since 1 July heating degree days 5674 5594  
Cooling Degree Days 0 0  
Month to date cooling degree days 4 0  
Year to date cooling degree days 4 0  
Growing Degree Days 6 (Base 50)    
Moisture  
Dew Point 24 °F    
Average Humidity 33    
Maximum Humidity 52    
Minimum Humidity 13    
Precipitation  
Precipitation 0.00 in 0.06 in 0.78 in (1930)
Month to date precipitation 0.20 1.28  
Year to date precipitation 1.56 3.22  
Snow  
Snow 0.00 in 0.10 in - ()
Month to date snowfall 0.4 3.9  
Since 1 July snowfall 29.1 34.7  
Snow Depth 0.00 in    
Sea Level Pressure  
Sea Level Pressure 29.76 in    
Wind  
Wind Speed 10 mph (South)    
Max Wind Speed 22 mph    
Max Gust Speed 28 mph    
Visibility 10 miles    
Events      
T = Trace of Precipitation, MM = Missing Value Source: NWS Daily Summary

Daily Weather History Graph

Daily Weather History Graph

Search for Another Location

Airport or City:

Trip Planner

Search our weather history database for the weather conditions in past years. The results will help you decide how hot, cold, wet, or windy it might be!

Date:

Astronomy

Apr. 25, 2014 Rise Set
Actual Time 5:55 AM MDT 7:34 PM MDT
Civil Twilight 5:27 AM MDT 8:03 PM MDT
Nautical Twilight 4:52 AM MDT 8:37 PM MDT
Astronomical Twilight 4:16 AM MDT 9:14 PM MDT
Moon 3:43 AM MDT (4/25) 4:00 PM MDT (4/25)
Length of Visible Light 14h 35m
Length of Day
13h 38m
Waning Crescent, 15% of the Moon is Illuminated
Apr 25
Waning Crescent
Apr 29
New
May 6
First Quarter
May 14
Full
May 21
Last Quarter

Hourly Weather History & Observations

Time (MDT) Temp. Windchill Dew Point Humidity Pressure Visibility Wind Dir Wind Speed Gust Speed Precip Events Conditions
12:53 AM 50.0 °F - 17.1 °F 27% 29.85 in 10.0 mi SSW 11.5 mph - N/A   Clear
1:53 AM 50.0 °F - 17.1 °F 27% 29.84 in 10.0 mi SSW 11.5 mph - N/A   Clear
2:53 AM 48.9 °F - 17.1 °F 28% 29.84 in 10.0 mi SSW 9.2 mph - N/A   Clear
3:53 AM 48.9 °F - 17.1 °F 28% 29.83 in 10.0 mi SSW 13.8 mph - N/A   Clear
4:53 AM 48.9 °F - 18.0 °F 29% 29.83 in 10.0 mi SSW 9.2 mph - N/A   Clear
5:53 AM 36.0 °F 30.3 °F 19.9 °F 52% 29.86 in 10.0 mi West 6.9 mph - N/A   Clear
6:53 AM 42.1 °F 40.2 °F 21.9 °F 45% 29.85 in 10.0 mi WNW 3.5 mph - N/A   Clear
7:53 AM 51.1 °F - 24.1 °F 35% 29.86 in 10.0 mi West 4.6 mph - N/A   Clear
8:53 AM 60.1 °F - 27.0 °F 28% 29.84 in 10.0 mi West 6.9 mph - N/A   Clear
9:53 AM 64.9 °F - 25.0 °F 22% 29.84 in 10.0 mi SW 3.5 mph - N/A   Clear
10:53 AM 71.1 °F - 24.1 °F 17% 29.81 in 10.0 mi Variable 3.5 mph - N/A   Clear
11:53 AM 73.0 °F - 24.1 °F 16% 29.78 in 10.0 mi NE 10.4 mph - N/A   Clear
12:53 PM 73.0 °F - 24.1 °F 16% 29.77 in 10.0 mi ENE 4.6 mph - N/A   Clear
1:53 PM 75.0 °F - 21.9 °F 14% 29.75 in 10.0 mi SSE 6.9 mph 18.4 mph N/A   Clear
2:53 PM 75.0 °F - 21.9 °F 14% 29.73 in 10.0 mi North - - N/A   Clear
3:53 PM 75.9 °F - 24.1 °F 15% 29.70 in 10.0 mi SE 11.5 mph - N/A   Clear
4:53 PM 75.9 °F - 24.1 °F 15% 29.68 in 10.0 mi South 16.1 mph - N/A   Clear
5:53 PM 73.9 °F - 26.1 °F 17% 29.72 in 10.0 mi SSE 18.4 mph - N/A   Clear
6:53 PM 68.0 °F - 28.0 °F 22% 29.70 in 10.0 mi SE 11.5 mph - N/A   Clear
7:53 PM 61.0 °F - 28.0 °F 29% 29.68 in 10.0 mi SE 12.7 mph - N/A   Clear
8:53 PM 57.0 °F - 28.9 °F 34% 29.66 in 10.0 mi SE 11.5 mph - N/A   Clear
9:53 PM 55.9 °F - 28.9 °F 36% 29.64 in 10.0 mi SE 13.8 mph - N/A   Clear
10:53 PM 55.0 °F - 28.0 °F 35% 29.60 in 10.0 mi SE 17.3 mph - N/A   Clear
11:53 PM 55.9 °F - 28.0 °F 34% 29.56 in 10.0 mi SE 17.3 mph - N/A   Clear